This is the latest recevied weather packets stored in our database for station/object K6GMW. If no packets are shown the sender has not sent any weather packets the latest 10 day(s).
| Time | Temp. | Humidity | Pressure | Rain* | Wind** | Luminosity | Snow |
|---|---|---|---|---|---|---|---|
| 1788269080 | 25.56° C | 81% | 1019.4 hPa | 0 mm | - | 68 W/m² | - |
| 1788268779 | 25.56° C | 83% | 1019.3 hPa | 0 mm | - | 65 W/m² | - |
| 1788268479 | 25° C | 85% | 1019.5 hPa | 0 mm | - | 60 W/m² | - |
| 1788268174 | 24.44° C | 86% | 1019.3 hPa | 0 mm | - | 53 W/m² | - |
| 1788267869 | 24.44° C | 86% | 1019.1 hPa | 0 mm | - | 48 W/m² | - |
| 1788267567 | 23.89° C | 87% | 1019 hPa | 0 mm | - | 48 W/m² | - |
| 1788267266 | 23.89° C | 87% | 1019.1 hPa | 0 mm | - | 44 W/m² | - |
| 1788266961 | 23.33° C | 88% | 1018.9 hPa | 0 mm | - | 42 W/m² | - |
| 1788266656 | 23.33° C | 88% | 1018.9 hPa | 0 mm | - | 42 W/m² | - |
| 1788266351 | 22.78° C | 88% | 1019 hPa | 0 mm | - | 39 W/m² | - |
| 1788266046 | 22.78° C | 87% | 1018.8 hPa | 0 mm | - | 36 W/m² | - |
| 1788265744 | 22.78° C | 88% | 1018.6 hPa | 0 mm | - | 31 W/m² | - |
| 1788265439 | 22.78° C | 88% | 1018.4 hPa | 0 mm | - | 24 W/m² | - |
| 1788265138 | 22.78° C | 88% | 1018.6 hPa | 0 mm | - | 19 W/m² | - |
| 1788264833 | 22.78° C | 88% | 1018.4 hPa | 0 mm | - | 17 W/m² | - |
| 1788264528 | 22.78° C | 88% | 1018.5 hPa | 0 mm | - | 14 W/m² | - |
| 1788264223 | 22.78° C | 88% | 1018.4 hPa | 0 mm | - | 10 W/m² | - |
| 1788263919 | 22.22° C | 88% | 1018.3 hPa | 0 mm | - | 6 W/m² | - |
| 1788263613 | 22.78° C | 89% | 1018.3 hPa | 0 mm | - | 4 W/m² | - |
| 1788263311 | 22.78° C | 88% | 1018.2 hPa | 0 mm | - | 2 W/m² | - |
| 1788263011 | 22.78° C | 88% | 1018.1 hPa | 0 mm | - | 1 W/m² | - |
| 1788262709 | 22.78° C | 88% | 1018.2 hPa | 0 mm | - | 0 W/m² | - |
| 1788262409 | 22.78° C | 88% | 1018.1 hPa | 0 mm | - | 0 W/m² | - |
| 1788262104 | 22.78° C | 88% | 1018 hPa | 0 mm | - | 0 W/m² | - |
| 1788261804 | 22.78° C | 88% | 1018.2 hPa | 0 mm | - | 0 W/m² | - |
* Rain latest hour (hover to see other rain measurements)
** Current wind speed in m/s (hover to see current wind gust speed)